Weather History for KPYM - September, 2013

Change the Weather History Date:

Friday, September 13, 2013

  Actual Average Record
Temperature  
Mean Temperature 70 °F -  
Max Temperature 80 °F 74 °F 91 °F (1957)
Min Temperature 62 °F 51 °F 38 °F (1967)
Cooling Degree Days 6    
Growing Degree Days 20 (Base 50)    
Moisture  
Dew Point 65 °F    
Average Humidity 84    
Maximum Humidity 94    
Minimum Humidity 60    
Precipitation  
Precipitation 0.08 in - - ()
Sea Level Pressure  
Sea Level Pressure 29.65 in    
Wind  
Wind Speed 5 mph (West)    
Max Wind Speed 13 mph    
Max Gust Speed 18 mph    
Visibility 9 miles    
Events Rain    
Averages and records for this station are not official NWS values.
T = Trace of Precipitation, MM = Missing Value Source: NWS Daily Summary

Daily Weather History Graph

Daily Weather History Graph

Search for Another Location

Airport or City:

Trip Planner

Search our weather history database for the weather conditions in past years. The results will help you decide how hot, cold, wet, or windy it might be!

Date:

Astronomy

Sep. 13, 2013 Rise Set
Actual Time 6:21 AM EDT 6:55 PM EDT
Civil Twilight 5:53 AM EDT 7:23 PM EDT
Nautical Twilight 5:19 AM EDT 7:56 PM EDT
Astronomical Twilight 4:45 AM EDT 8:30 PM EDT
Moon 2:46 PM EDT (9/13) No Moon Set
Length of Visible Light 13h 30m
Length of Day
12h 34m
First Quarter, 61% of the Moon is Illuminated
Sep 13
First Quarter
Sep 19
Full
Sep 26
Last Quarter
Oct 4
New
Oct 11
First Quarter

Hourly Weather History & Observations

Time (EDT) Temp. Dew Point Humidity Pressure Visibility Wind Dir Wind Speed Gust Speed Precip Events Conditions
12:10 AM 71.6 °F 68.0 °F 88% 29.70 in 8.0 mi South 6.9 mph - N/A   Overcast
12:52 AM 70.0 °F 68.0 °F 93% 29.69 in 6.0 mi SSW 4.6 mph - 0.01 in Rain Light Rain
1:04 AM 69.8 °F 68.0 °F 94% 29.68 in 6.0 mi South 4.6 mph - 0.01 in Rain Light Rain
1:33 AM 69.8 °F 66.2 °F 88% 29.68 in 8.0 mi SSW 8.1 mph - 0.01 in   Overcast
1:52 AM 69.1 °F 66.0 °F 90% 29.68 in 10.0 mi SSW 8.1 mph - 0.01 in   Overcast
2:11 AM 69.8 °F 66.2 °F 88% 29.67 in 10.0 mi SW 8.1 mph - N/A   Overcast
2:52 AM 69.1 °F 66.0 °F 90% 29.65 in 9.0 mi SSW 4.6 mph - N/A   Overcast
3:32 AM 69.8 °F 66.2 °F 88% 29.64 in 9.0 mi SSW 4.6 mph - N/A   Overcast
3:39 AM 69.8 °F 66.2 °F 88% 29.64 in 9.0 mi SSW 3.5 mph - N/A   Overcast
3:52 AM 69.1 °F 66.0 °F 90% 29.63 in 9.0 mi South 3.5 mph - N/A   Overcast
4:29 AM 69.8 °F 66.2 °F 88% 29.63 in 6.0 mi SSW 4.6 mph - N/A   Overcast
4:52 AM 69.1 °F 66.9 °F 93% 29.62 in 5.0 mi SSW 3.5 mph - N/A   Overcast
5:52 AM 70.0 °F 66.9 °F 90% 29.62 in 5.0 mi SW 5.8 mph - N/A   Overcast
6:38 AM 69.8 °F 68.0 °F 94% 29.62 in 7.0 mi Calm Calm - 0.02 in Rain Light Rain
6:49 AM 69.8 °F 66.2 °F 88% 29.63 in 6.0 mi Calm Calm - 0.02 in   Overcast
6:52 AM 70.0 °F 66.9 °F 90% 29.63 in 5.0 mi Calm Calm - 0.02 in   Overcast
7:23 AM 69.8 °F 66.2 °F 88% 29.64 in 5.0 mi WSW 3.5 mph - N/A   Overcast
7:52 AM 70.0 °F 68.0 °F 93% 29.64 in 6.0 mi WSW 4.6 mph - N/A   Overcast
8:25 AM 69.8 °F 68.0 °F 94% 29.63 in 6.0 mi WNW 3.5 mph - 0.00 in Rain Light Rain
8:52 AM 70.0 °F 66.9 °F 90% 29.63 in 5.0 mi NW 3.5 mph - 0.01 in Rain Light Rain
9:39 AM 71.6 °F 66.2 °F 83% 29.63 in 9.0 mi WNW 4.6 mph - 0.02 in Rain Light Rain
9:52 AM 71.1 °F 68.0 °F 90% 29.63 in 10.0 mi WNW 3.5 mph - 0.02 in   Overcast
10:07 AM 71.6 °F 66.2 °F 83% 29.62 in 10.0 mi NW 4.6 mph - N/A   Overcast
10:15 AM 71.6 °F 66.2 °F 83% 29.62 in 10.0 mi NW 3.5 mph - N/A   Overcast
10:52 AM 71.1 °F 66.0 °F 84% 29.63 in 10.0 mi NNW 5.8 mph - N/A   Overcast
10:57 AM 71.6 °F 64.4 °F 78% 29.63 in 10.0 mi NNW 5.8 mph - N/A   Overcast
11:52 AM 72.0 °F 66.0 °F 81% 29.62 in 10.0 mi NE 4.6 mph - N/A   Overcast
12:52 PM 75.0 °F 64.9 °F 71% 29.60 in 10.0 mi Calm Calm - N/A   Overcast
1:52 PM 75.9 °F 64.0 °F 67% 29.59 in 10.0 mi Variable 4.6 mph - N/A   Scattered Clouds
2:52 PM 79.0 °F 64.0 °F 60% 29.58 in 10.0 mi West 6.9 mph - N/A   Mostly Cloudy
3:52 PM 79.0 °F 64.9 °F 62% 29.58 in 10.0 mi East 3.5 mph - N/A   Partly Cloudy
4:52 PM 75.0 °F 63.0 °F 66% 29.60 in 10.0 mi NW 12.7 mph 18.4 mph N/A   Overcast
5:52 PM 73.0 °F 63.0 °F 71% 29.61 in 10.0 mi WSW 5.8 mph - 0.01 in   Clear
6:34 PM 71.6 °F 64.4 °F 78% 29.63 in 10.0 mi NNW 6.9 mph - N/A   Mostly Cloudy
6:42 PM 69.8 °F 64.4 °F 83% 29.64 in 10.0 mi NNW 9.2 mph - N/A   Overcast
6:52 PM 70.0 °F 64.0 °F 81% 29.65 in 10.0 mi North 10.4 mph - N/A   Overcast
7:52 PM 66.9 °F 62.1 °F 84% 29.68 in 10.0 mi NNW 6.9 mph - N/A   Clear
8:45 PM 66.2 °F 60.8 °F 83% 29.71 in 10.0 mi NNW 8.1 mph - N/A   Overcast
8:52 PM 66.9 °F 60.1 °F 79% 29.72 in 10.0 mi NNW 9.2 mph - N/A   Overcast
9:39 PM 64.4 °F 59.0 °F 83% 29.72 in 10.0 mi North 6.9 mph - N/A   Overcast
9:52 PM 64.9 °F 59.0 °F 81% 29.72 in 10.0 mi NNW 5.8 mph - N/A   Scattered Clouds
10:52 PM 62.1 °F 57.9 °F 86% 29.74 in 10.0 mi NW 5.8 mph - N/A   Partly Cloudy
11:42 PM 62.6 °F 55.4 °F 77% 29.74 in 10.0 mi NW 8.1 mph - N/A   Mostly Cloudy
11:52 PM 62.1 °F 55.9 °F 80% 29.75 in 10.0 mi NW 6.9 mph - N/A   Overcast